Regional Weather Roundup
Issued by NWS Cleveland, OH

Home | Current Version | Previous Version | Text Only | Print | Product List | Glossary Off
Versions: 1 2 3 4 5 6 7 8 9 10 11 12 13 14 15 16 17 18 19 20 21 22 23 24 25 26 27 28 29 30 31 32 33 34 35 36 37 38 39 40 41 42 43 44 45 46 47 48 49 50

598
ASUS41 KCLE 301602
RWRCLE
OHIO REGIONAL WEATHER ROUNDUP
NATIONAL WEATHER SERVICE CLEVELAND, OH
1200 PM EDT SAT JUL 30 2016

NOTE: "FAIR" INDICATES FEW OR NO CLOUDS BELOW 12,000 FEET WITH NO
SIGNIFICANT WEATHER AND/OR OBSTRUCTIONS TO VISIBILITY.

OHZ001>008-015>018-024>027-034-035-043-044-301700-
   NORTHWEST OHIO

CITY           SKY/WX    TMP DP  RH WIND       PRES   REMARKS
DEFIANCE       CLOUDY    75  67  76 N5        29.98R
FINDLAY        MOSUNNY   80  69  69 W8        29.95S
TOLEDO EXPRESS CLOUDY    79  70  74 N6        29.95S
TOLEDO EXEC    PTSUNNY   81  70  69 N10       29.95S
LIMA           CLOUDY    74  70  87 VRB3      29.98R
$$

OHZ009>014-019>023-028>033-038-089-301700-
   NORTHEAST OHIO

CITY           SKY/WX    TMP DP  RH WIND       PRES   REMARKS
CLE-HOPKINS    CLOUDY    82  66  58 S3        29.97S
CLE-LAKEFRONT  PTSUNNY   79  70  74 N10       29.94S
CUY CO. ARPT   PTSUNNY   82  72  69 SE5       29.96F
LORAIN-ELYRIA  PTSUNNY   80  69  69 CALM      29.96S
ASHTABULA      CLOUDY    74  69  85 SE9       29.99R
AKRON-CANTON   PTSUNNY   79  68  69 S6        29.98S
WOOSTER        PTSUNNY   79  69  71 SE3       29.98S
MANSFIELD      MOSUNNY   80  69  69 W6        29.97S
YOUNGSTOWN     PTSUNNY   75  68  78 VRB5      29.99S
$$

OHZ042-051>053-060>062-070>072-077>081-301700-
  SOUTHWEST OHIO

CITY           SKY/WX    TMP DP  RH WIND       PRES   REMARKS
CINC-COVINGTON PTSUNNY   80  71  74 VRB3      30.00R
CINC-LUNKEN    PTSUNNY   79  73  82 W6        29.99R
HAMILTON       PTSUNNY   81  70  69 VRB6      29.99S
DAYTON         PTSUNNY   79  70  74 SW8       29.99S
WRIGHT-PAT AFB PTSUNNY   78  72  82 VRB3      29.98R
DAYTON GENERAL PTSUNNY   79  68  69 W7        29.98S
WILMINGTON     CLOUDY    78  71  79 W7        29.99S
$$

OHZ036-037-039>041-045>050-054>059-063>069-073>076-082>088-301700-
  CENTRAL AND SOUTHEAST OHIO

CITY           SKY/WX    TMP DP  RH WIND       PRES   REMARKS
COLUMBUS       CLOUDY    78  69  73 S6        29.96S
OSU AIRPORT    PTSUNNY   81  70  69 VRB3      29.97R
BOLTON FIELD   PTSUNNY   79  72  78 SW8         N/A
RICKENBACK AFB PTSUNNY   78  70  76 W6        29.97R
NEWARK         CLOUDY    78  70  76 SW7       29.97R
MARION         PTSUNNY   82  68  62 VRB5      29.97S
LANCASTER      PTSUNNY   77  71  82 W7        29.98R
ZANESVILLE     CLOUDY    80  69  69 W6        29.98R
NEW PHILLY     CLOUDY    79  69  71 VRB3      29.98S
$$




USA.gov is the U.S. government's official web portal to all federal, state and local government web resources and services.